OneWeb SL0589

operational
NORAD ID: 54655 Int'l Des: 2022-166 Owner: ONEWEBN Country: UK Constellation: oneweb
LEOCIRCULARPOLARONEWEB_TYPE

About OneWeb SL0589

Description loading...

Live Position

Loading 3D Globe...

Upcoming Passes

Altitude History

Altitude vs Time

uPlot chart will show altitude changes over time

Two-Line Element Set

1 54655U 22166P 25298.46249021 .00000088 00000-0 18068-3 0 9998
2 54655 87.9165 290.8223 0001288 66.8440 293.2829 13.21827408140530
Epoch: Oct 25, 2025 • Age: 14 hours

Current Status

Altitude 1205.7 km
Velocity 7.25 km/s
Sub-Earth Point -73.16°S, 66.5°E
Launch Date Dec 8, 2022
Age 2.8 years
Type internet

Technical Details

Classification Payload
Mass 148.00 kg
Dry Mass 140.00 kg
Total Mass 148.00 kg
Length 1.30 m
Diameter 1.00 m
Span 5.00 m
Shape Trapezoid+2 pan
Manufacturer ONEWUS
Bus Type ARROW
Phase Status In Orbit
Owner/State ONEWEBN/UK

Large Constellations

Loading constellations...